Regional Weather Roundup
Issued by NWS Upton, NY

Current Version | Previous Version | Text Only | Print | Product List | Glossary On
Versions: 1 2 3 4 5 6 7 8 9 10 11 12 13 14 15 16 17 18 19 20 21 22 23 24 25 26 27 28 29 30 31 32 33 34 35 36 37 38 39 40 41 42 43 44 45 46 47 48
000
ASUS41 KOKX 212105
RWROKX

REGIONAL WEATHER ROUNDUP
NATIONAL WEATHER SERVICE NEW YORK NY
500 PM EDT TUE OCT 21 2014

NOTE: "FAIR" INDICATES FEW OR NO CLOUDS BELOW 12,000 FEET WITH NO
SIGNIFICANT WEATHER AND/OR OBSTRUCTIONS TO VISIBILITY.

NYZ071-072-176-178-NJZ106-104-212200-
NEW YORK CITY METRO AREA


CITY           SKY/WX    TMP DP  RH WIND       PRES   REMARKS
CENTRAL PARK   PTSUNNY   65  52  62 CALM      29.85S
LAGUARDIA APRT MOSUNNY   65  53  65 E12G20    29.82F
KENNEDY INTL   PTSUNNY   63  57  81 E7        29.83F
NEWARK/LIBERTY PTSUNNY   64  53  67 SE9       29.82S
BRNX BOT. GARD   N/A     63  52  67 NE2       29.85S
TETERBORO      LGT RAIN  61  52  72 N8        29.82F
$$

NYZ177-179-078>081-212200-
LONG ISLAND NEW YORK

CITY           SKY/WX    TMP DP  RH WIND       PRES   REMARKS
FARMINGDALE    PTSUNNY   61  56  83 SE6       29.84S
ISLIP          RAIN      60  54  80 SE9       29.83S
SHIRLEY        LGT RAIN  62  57  83 CALM      29.87S
WESTHAMPTON    PTSUNNY   64  55  72 CALM      29.87S
MONTAUK POINT    N/A     65  56  72 NE5       29.88S
$$

NYZ052-065-067-212200-
HUDSON VALLEY

CITY           SKY/WX    TMP DP  RH WIND       PRES   REMARKS
WHITE PLAINS   PTSUNNY   61  51  70 SE6       29.84S
NEWBURGH       PTSUNNY   55  52  88 E6        29.88S
MONTGOMERY     CLOUDY    54  49  83 NE5       29.87S
POUGHKEEPSIE   MOSUNNY   55  50  83 N6        29.87S
ALBANY         LGT RAIN  55  50  83 N7        29.92S
$$

NJZ001-105-106-008-010-013-015-019>022-104-212200-
NEW JERSEY

CITY           SKY/WX    TMP DP  RH WIND       PRES   REMARKS
NEWARK/LIBERTY PTSUNNY   64  53  67 SE9       29.82S
TETERBORO      LGT RAIN  61  52  72 N8        29.82F
CALDWELL       CLOUDY    57  53  86 NE5       29.84S
MORRISTOWN     PTSUNNY   61  54  77 NE8       29.83S
SOMERVILLE     MOSUNNY   65  52  62 CALM      29.80R
SUSSEX         CLOUDY    58  50  75 NE12      29.86S
ANDOVER          N/A     55  52  89 NE7       29.84F
TRENTON        MOSUNNY   68  46  45 NW6       29.80S
MILLVILLE      SUNNY     69  46  43 W6        29.80S
ATLANTIC CITY  SUNNY     68  51  54 S7        29.80S
WRIGHTSTOWN    MOSUNNY   66  51  58 N1        29.79S
TOMS RIVER     CLOUDY    63  57  82 NE6       29.82S
BELMAR         MOSUNNY   61  52  72 NE7       29.82S
$$

PAZ047>061-062-071-212200-
EASTERN PENNSYLVANIA

CITY           SKY/WX    TMP DP  RH WIND       PRES   REMARKS
PHILADELPHIA   MOSUNNY   68  46  45 W5        29.81S
ALLENTOWN      SUNNY     65  45  48 CALM      29.82S
SCRANTON       CLOUDY    60  46  59 SW3       29.84S
$$

CTZ002-004>006-009-010-012-RIZ004-006-007-MAZ004-011-015-212200-
SOUTHERN NEW ENGLAND
 IN CT

CITY           SKY/WX    TMP DP  RH WIND       PRES   REMARKS
BRADLEY INTL   MOCLDY    62  48  60 N9        29.88R
HARTFORD       MOCLDY    63  50  62 N8        29.87R
DANBURY        LGT RAIN  59  29  31 S5        29.87R
WTRBRY/OXFORD  PTSUNNY   61  46  59 SE5       29.87R
BRIDGEPORT     CLOUDY    63  56  78 NE8       29.86R
MERIDEN        CLOUDY    62  50  64 SE5       29.87R
NEW HAVEN      CLOUDY    60  53  77 NE5       29.86S
CHESTER        LGT RAIN  61  55  82 CALM      29.89R
GROTON         PTCLDY    63  54  72 E3        29.87R
WILLIMANTIC    MOCLDY    66  45  46 S3        29.88R

 IN RI

CITY           SKY/WX    TMP DP  RH WIND       PRES   REMARKS
PROVIDENCE     MOCLDY    62  56  80 E5        29.89S
BLOCK ISLAND   PTCLDY    63  55  77 NE5       29.88S
WESTERLY       PTCLDY    64  54  69 CALM      29.88S

 IN MA

CITY           SKY/WX    TMP DP  RH WIND       PRES   REMARKS
BOSTON         PTCLDY    57  55  93 NE8       29.92R
WORCESTER      MOCLDY    57  50  77 NE6       29.91R
WESTFIELD      MOCLDY    58  48  69 N10       29.89R
PROVINCETOWN   CLOUDY    61  54  77 SE8       29.92S
NANTUCKET      CLOUDY    59  56  89 SE13      29.90S
$$

ANZ330-335-338-340-345-350-353-355-212200-
COASTAL MARINE OBSERVATIONS


STATION/POSITION TIME  SKY/WX   TEMP    WIND        PRES    VSBY  WAVE
                                AIR SEA DIR/SP/G                  HT/PER
                 (UTC)          (F)     (DEG/KT/KT) (MB)    (MI)  (FT/S)
NY HARB ENTRANCE NOT AVBL
4S FIRE IS       2100               64                N/A           3/ 6
20S FIRE ISLAND  2100            57 64  340/ 12/ 17 1010.4          3/ 6
23SW MTP         2100                                 N/A           4/ 6
HUDSON CANYON    2100            67 67  180/  6/  8 1009.7          5/ 6
EXECUTION ROCKS  2100            63 63   90/  6/  8   N/A
WESTERN LI SOUND 2100            63      80/  8/ 10   N/A           1
CENTRAL LI SOUND 2100            63 65   50/ 10/ 10   N/A           1
EASTERN LI SOUND 2000            66 64  100/  4/  6   N/A
ROBBINS REEF     2100            63     120/ 12/ 15 1008.6
$$


>>>>>>>>>>>>>>>>>>>>>>>>>>>> KEY <<<<<<<<<<<<<<<<<<<<<<<<<<<
>                                                          <
>     SKY/WX - SKY CONDITION/PRESENT WEATHER               <
>     TMP    - TEMPERATURE IN FAHRENHEIT                   <
>     DP     - DEWPOINT IN FAHRENHEIT                      <
>     RH     - RELATIVE HUMIDITY IN PERCENT                <
>     WIND   - DIRECTION AND SPEED IN MPH                  <
>     PRES   - MEAN SEA LEVEL PRESSURE IN INCHES OF HG     <
>     WCI    - WIND CHILL INDEX                            <
>     VSB    - VISIBILITY IN MILES                         <
>     HX     - HEAT INDEX                                  <
>     TC     - TEMPERATURE IN CELSIUS                      <
>     VRB    - VARIABLE WIND DIRECTION                     <
>                                                          <
>>>>>>>>>>>>>>>>>>>>>>>>>>>> KEY <<<<<<<<<<<<<<<<<<<<<<<<<<<





USA.gov is the U.S. government's official web portal to all federal, state and local government web resources and services.